FDX9900 EBLG-EIDW

Flight info

Callsign FDX9900
Flight time N/A
Altitude 38000
Route BUB L608 DENUT L610 KOPUL DCT SABER DCT SIVDA DCT RODOL UL28 LELDO M145 BAGSO BAGSO3R
Aircraft B738/M-SDE2E3FGHIRWXY/LB1

Departure

Time N/A
Airport Liège Airport (EBLG)

Arrival

Time 2026-04-30 17:59
Airport Dublin Airport (EIDW)
Time Latitude Longitude Altitude Speed Heading
2026-04-30 17:39 53.59677 -5.68128 23567 ft 278 kts 148°
2026-04-30 17:41 53.47289 -5.54852 19810 ft 256 kts 170°
2026-04-30 17:42 53.43802 -5.53933 18972 ft 251 kts 170°
2026-04-30 17:42 53.38686 -5.52771 17793 ft 242 kts 183°
2026-04-30 17:43 53.35563 -5.54782 16976 ft 248 kts 210°
2026-04-30 17:44 53.33142 -5.62598 15704 ft 278 kts 263°
2026-04-30 17:44 53.34043 -5.67649 15038 ft 296 kts 299°
2026-04-30 17:46 53.43476 -5.72931 12865 ft 294 kts 24°
2026-04-30 17:47 53.46209 -5.62910 11148 ft 236 kts 115°
2026-04-30 17:48 53.41258 -5.57246 9865 ft 228 kts 173°
2026-04-30 17:48 53.36526 -5.56839 9042 ft 226 kts 174°
2026-04-30 17:49 53.30325 -5.56648 8046 ft 225 kts 194°
2026-04-30 17:50 53.25151 -5.62874 8000 ft 242 kts 238°
2026-04-30 17:51 53.26522 -5.71107 7256 ft 286 kts 312°
2026-04-30 17:52 53.30391 -5.77426 6198 ft 294 kts 311°
2026-04-30 17:53 53.36981 -5.88809 5097 ft 259 kts 312°
2026-04-30 17:54 53.40619 -5.98276 3860 ft 223 kts 268°
2026-04-30 17:55 53.41017 -6.07710 2422 ft 198 kts 268°
2026-04-30 17:56 53.41527 -6.15613 1358 ft 153 kts 269°
2026-04-30 17:57 53.41719 -6.20782 542 ft 136 kts 278°
2026-04-30 17:58 53.42038 -6.25305 261 ft 129 kts 276°
2026-04-30 17:59 53.42326 -6.28134 225 ft 15 kts 352°
2026-04-30 18:00 53.42334 -6.27578 224 ft 12 kts 90°
2026-04-30 18:00 53.42316 -6.27176 224 ft 11 kts 97°
2026-04-30 18:01 53.42302 -6.26927 224 ft 10 kts 92°
2026-04-30 18:02 53.42300 -6.26838 224 ft 0 kts 93°
2026-04-30 18:02 53.42296 -6.26775 224 ft 14 kts 96°
2026-04-30 18:03 53.42363 -6.25995 224 ft 25 kts 45°
2026-04-30 18:04 53.42440 -6.26033 224 ft 5 kts 225°
2026-04-30 18:05 53.42439 -6.26034 224 ft 0 kts 223°